Estación meteorológica de St. Llorenç del Munt i l'Obac (Bages, P.N.de Sant Llorenç del Munt i l'Obac)

Consulta los datos en tiempo real de la estación meteorológica de St. Llorenç del Munt i l'Obac





Hora UTC 03:15
Temperatura 20.4 ºC
Humedad 47.0 %
Presión 1021.9 hPa
Pluja 0.0 mm
Velocidad viento 5.2 km/h
Dirección viento SSE
Radiación solar 0.1 W/m²

Datos diarios 2026-08-31



Hora UTC (invierno +1h; verano +2h)
Temperatura (ºC) Humedad (%) Presión (hPa) Velocidad viento (km/h) Precipitación (mm) Radiación solar (W/m²)
Hora UTC Aire Humedad Presión Vel. Dir. Vel. Max Dir. Intent. máx 5 min. Rad. Sol.
00:05 22.7 37.1 1021.9 4.2 SSW 4.2 SSW 0.0 0.1
00:10 22.7 37.4 1021.8 0.7 SW 3.2 SW 0.0 0.1
00:15 22.6 37.4 1021.8 2.0 W 4.6 W 0.0 0.1
00:20 22.7 36.4 1021.8 3.8 WNW 6.4 WNW 0.0 0.1
00:25 22.7 37.1 1021.8 5.1 WNW 8.5 WNW 0.0 0.1
00:30 22.4 40.2 1021.8 2.9 NNW 5.3 NNW 0.0 0.1
00:35 21.9 42.2 1021.8 1.8 NW 3.9 NNW 0.0 0.1
00:40 22.0 39.6 1021.8 4.1 W 8.1 W 0.0 0.1
00:45 22.3 39.0 1021.8 3.2 SSW 6.4 WSW 0.0 0.1
00:50 22.2 38.6 1021.9 2.7 S 4.6 SSE 0.0 0.1
00:55 22.3 37.8 1021.8 5.0 SW 7.4 SSW 0.0 0.1
01:00 22.5 37.2 1021.8 7.7 SW 12.4 WSW 0.0 0.1
01:05 22.6 36.9 1021.8 5.3 S 6.4 SSW 0.0 0.1
01:10 22.3 37.3 1021.8 5.2 S 7.4 S 0.0 0.1
01:15 22.0 38.5 1021.8 4.5 SSW 6.7 SSW 0.0 0.1
01:20 21.9 38.8 1021.8 4.5 SSW 6.0 S 0.0 0.1
01:25 21.8 39.1 1021.8 4.3 S 6.4 S 0.0 0.1
01:30 21.7 39.6 1021.8 4.3 SSW 6.4 SSW 0.0 0.1
01:35 21.7 39.9 1021.8 4.4 SSW 6.4 SSW 0.0 0.1
01:40 21.7 40.1 1021.8 3.9 SSW 7.1 S 0.0 0.1
01:45 21.7 40.0 1021.8 4.7 S 7.4 SSW 0.0 0.1
01:50 21.6 40.4 1021.8 5.3 S 6.7 S 0.0 0.1
01:55 21.6 40.8 1021.8 5.0 SSW 7.1 S 0.0 0.1
02:00 21.6 41.1 1021.8 4.9 SSW 6.4 SSW 0.0 0.1
02:05 21.7 41.2 1021.7 4.9 SSW 6.7 S 0.0 0.1
02:10 21.7 41.5 1021.8 4.7 SSW 6.0 S 0.0 0.1
02:15 21.7 41.5 1021.7 3.8 SSW 6.0 S 0.0 0.1
02:20 21.7 41.6 1021.8 4.0 SSW 6.4 SSW 0.0 0.1
02:25 21.6 41.9 1021.8 3.2 S 5.3 SSW 0.0 0.1
02:30 21.4 42.7 1021.8 3.5 S 4.6 S 0.0 0.1
02:35 21.2 43.4 1021.8 3.7 SSE 6.0 S 0.0 0.1
02:40 20.9 44.1 1021.8 3.5 SSE 6.4 SSE 0.0 0.1
02:45 20.8 44.7 1021.9 5.3 SSE 7.1 SSE 0.0 0.1
02:50 20.6 45.4 1021.9 5.0 SSE 7.4 SSE 0.0 0.1
02:55 20.6 45.7 1021.9 3.5 S 5.3 SSE 0.0 0.1
03:00 20.6 46.0 1021.9 4.3 S 6.0 SSE 0.0 0.1
03:05 20.6 46.2 1021.9 3.6 SSE 5.3 SSE 0.0 0.1
03:10 20.5 46.7 1021.9 5.1 SSE 7.4 SSE 0.0 0.1
03:15 20.4 47.0 1021.9 5.2 SSE 6.7 SE 0.0 0.1
Máxima 22.7 47.0 1021.9 7.7 SW 12.4 WSW 0.0 0.1
Mínima 20 36.4 1021.7
Total 0.0